GEFSCGP_500_meanwind_126.txt.gz
Wind_Speed
16 15 13 11 12 12 12 12 13 13 15 19 20 18 15 15 18 18 17 14 12 10 9 8 8 10 11 12 13 13 14 14 15 15 14 13 12 10 9 8 6 5 4 3
16 13 12 12 13 14 13 14 15 16 18 18 18 16 15 14 17 17 16 14 12 10 8 7 7 8 9 11 12 12 12 13 14 14 13 12 11 9 8 8 7 6 4 3
15 12 13 14 15 15 15 16 17 16 17 16 17 15 14 14 16 16 16 14 11 9 8 7 7 7 8 9 10 10 11 11 12 13 13 12 10 8 8 8 7 6 5 3
14 13 16 17 17 16 16 16 16 14 15 16 15 16 13 15 15 15 14 12 10 7 5 5 6 7 7 8 9 10 10 10 11 11 11 11 9 8 9 8 7 6 5 4
14 15 18 19 17 17 17 16 16 14 15 16 14 12 13 15 15 13 13 12 9 6 5 4 5 6 6 7 9 9 10 10 9 10 10 9 9 9 9 9 8 7 6 4
17 17 18 18 17 18 16 15 15 14 15 16 10 11 14 14 15 14 12 12 10 7 5 4 4 4 6 7 8 9 9 9 10 10 9 9 9 10 9 9 7 7 6 4
18 19 18 18 18 18 15 14 14 15 15 12 8 10 11 13 15 14 12 11 9 7 5 4 3 4 5 7 8 8 9 9 9 9 9 9 9 9 9 8 7 6 5 4
17 17 17 19 19 17 16 15 14 15 14 14 12 10 10 11 12 13 12 11 9 6 5 3 3 4 5 6 7 8 9 10 9 10 9 9 9 9 9 8 7 6 5 4
18 18 17 19 20 18 16 16 15 15 14 15 15 10 10 9 10 12 11 10 8 6 4 3 2 3 4 5 6 7 8 9 9 10 10 9 9 9 8 8 7 6 5 5
20 22 19 18 19 18 17 16 16 16 16 15 15 14 15 10 9 11 11 9 7 6 5 3 2 3 5 6 6 7 8 9 10 10 10 9 9 8 8 7 7 6 6 6
24 25 22 21 21 18 18 18 18 18 17 16 16 17 12 8 11 11 10 9 8 7 6 4 3 4 5 6 7 8 8 9 10 11 11 10 9 9 8 8 8 8 8 9
27 27 27 26 23 20 20 19 19 20 19 18 17 17 16 11 11 10 10 10 9 8 7 6 5 6 6 6 7 8 8 9 10 10 11 10 10 10 10 10 10 10 11 11
29 29 30 27 26 25 23 22 22 22 21 19 17 18 18 16 11 10 10 11 11 9 8 8 7 7 7 7 8 8 9 9 10 10 11 11 11 11 11 11 12 12 13 13
31 32 31 29 27 27 26 25 24 23 22 20 18 19 20 17 15 13 11 12 12 12 10 9 9 8 9 9 9 9 10 11 11 11 11 11 11 12 12 13 14 14 15 15
30 31 30 30 29 28 26 25 25 25 22 21 20 21 20 17 17 16 13 13 13 12 12 11 11 11 10 11 11 11 11 11 12 12 12 12 12 13 14 15 15 16 16 17
28 30 31 31 29 28 27 24 22 20 19 20 22 23 21 21 20 18 17 16 16 15 14 13 12 12 12 12 12 13 13 13 14 14 14 15 15 15 16 16 17 17 18 19
27 28 29 30 30 31 29 24 22 21 21 21 22 23 24 25 21 20 20 20 19 18 16 15 14 14 14 14 14 15 15 15 16 16 17 17 17 17 18 18 19 20 21 21
28 28 28 29 30 32 28 23 23 21 22 23 24 25 26 26 23 23 23 22 21 20 18 17 17 15 15 15 16 16 16 16 17 18 18 19 19 20 21 21 22 22 23 24
26 28 28 28 30 30 26 25 26 24 24 24 25 26 26 25 26 24 24 23 22 21 20 20 19 17 17 17 17 18 18 18 19 19 20 21 22 23 23 24 24 25 25 26
25 27 27 29 31 31 28 29 28 26 28 28 28 27 26 26 26 25 23 22 21 20 20 20 19 19 19 18 19 19 20 21 21 22 23 23 24 25 26 26 27 27 28 29
24 26 25 26 28 28 28 29 28 28 28 27 27 27 28 28 27 24 22 22 21 21 20 20 20 20 20 20 20 20 21 22 23 24 25 25 26 27 27 28 29 30 30 31
23 23 24 25 25 27 28 29 28 28 27 27 26 26 26 27 27 25 25 23 22 22 22 22 22 22 22 22 22 22 23 24 24 25 26 27 27 28 29 30 31 31 32 32
23 22 23 24 24 26 27 29 29 26 27 26 24 24 26 27 26 26 25 25 24 24 24 24 24 25 25 25 25 25 25 26 27 27 28 29 30 31 31 32 33 34 34 34
22 22 21 23 25 25 25 26 26 26 27 24 23 24 24 25 26 26 26 25 25 25 25 25 25 26 26 27 27 28 28 28 28 28 29 31 32 33 34 34 35 35 36 36
22 23 23 22 22 22 22 22 22 23 24 25 25 25 24 25 25 25 25 25 25 25 26 27 27 27 28 28 29 30 30 30 31 32 33 34 34 36 37 37 38 39 39 38
21 20 20 21 21 21 20 21 23 23 23 23 24 24 24 24 24 25 25 26 26 26 27 28 28 29 29 29 30 30 31 32 34 34 35 35 36 38 39 40 40 40 40 40

GEFSCGP_500_meanwind_132.txt.gz
Wind_Speed
18 16 14 14 14 13 13 12 11 11 12 14 15 14 16 16 16 15 15 14 13 13 11 9 8 8 8 10 11 13 14 14 13 13 14 14 14 13 12 11 10 10 9 9
18 16 16 16 15 13 13 12 11 12 13 14 14 15 15 16 15 15 15 14 13 12 11 8 7 7 6 8 10 12 12 12 12 13 13 14 14 13 12 12 11 10 10 10
16 16 18 17 15 13 12 11 13 13 13 15 16 16 15 16 15 14 14 12 11 10 8 5 4 4 5 6 9 11 12 13 13 13 13 13 13 13 13 12 12 11 11 10
16 18 19 18 16 14 12 12 13 14 15 16 18 17 15 14 13 13 12 9 8 8 7 4 3 4 5 5 7 9 11 12 12 12 13 13 14 13 13 13 12 12 12 11
15 18 19 19 15 14 13 12 14 16 17 17 18 18 15 15 14 12 10 8 6 6 5 4 3 4 5 6 7 9 10 10 12 13 13 14 14 14 14 14 13 13 12 12
16 18 20 19 16 15 14 15 17 18 19 18 17 17 14 13 12 10 8 6 5 4 4 3 3 4 5 7 8 10 10 11 12 13 13 13 14 14 14 14 14 13 13 12
16 17 18 18 18 16 15 17 19 19 18 18 16 15 11 11 9 8 7 4 4 3 2 2 3 4 5 6 8 10 11 12 12 12 13 13 14 14 14 14 15 14 14 12
17 16 17 19 18 17 16 18 19 20 18 16 15 15 11 10 8 7 6 3 2 2 1 2 4 5 6 7 9 10 11 12 12 13 13 13 13 14 14 15 15 14 13 12
18 17 17 19 19 19 18 19 19 20 19 18 16 14 11 10 8 7 6 5 3 2 2 3 4 5 7 8 9 10 11 12 13 13 14 14 14 14 15 15 15 14 13 11
21 20 19 20 21 21 21 20 20 22 21 20 17 15 11 10 9 7 6 4 2 2 3 3 4 6 7 8 9 9 11 12 13 14 15 15 15 15 15 15 14 13 12 11
25 24 21 23 24 24 24 22 22 23 22 21 19 15 12 11 10 8 5 4 3 3 3 3 4 6 7 8 9 10 11 11 12 13 14 15 15 15 15 14 13 12 12 11
27 26 25 24 24 25 26 25 24 24 24 22 20 16 14 13 12 9 6 5 5 4 4 4 5 5 7 8 9 11 12 12 12 13 14 15 15 15 15 14 13 12 12 11
27 27 26 25 25 26 27 26 26 26 25 24 23 18 15 14 13 10 8 7 7 6 5 6 6 6 7 8 9 10 12 13 13 14 15 15 16 15 15 15 14 13 13 12
29 29 28 27 26 28 30 30 29 28 27 25 23 19 17 15 14 11 9 8 7 7 6 6 7 7 8 9 10 10 11 12 13 14 15 15 16 16 16 15 14 14 14 13
32 31 30 29 28 29 31 31 31 30 28 27 25 22 20 19 16 14 11 9 8 7 8 7 7 8 9 10 11 11 11 12 14 15 15 15 15 16 16 16 15 15 15 14
31 32 30 29 29 30 32 33 32 30 28 27 26 24 23 23 20 17 14 12 10 9 8 9 9 8 9 10 11 12 12 13 14 15 16 16 16 16 16 17 17 17 16 16
30 30 29 28 28 29 29 30 32 30 28 28 27 25 24 24 21 19 16 14 13 10 9 9 9 9 10 10 11 12 13 13 14 15 15 16 16 17 18 18 18 18 18 18
28 28 28 27 26 28 24 25 29 31 31 30 28 27 26 23 21 17 15 15 13 12 12 12 11 11 11 12 13 13 14 15 15 15 16 17 17 18 18 19 19 20 20 21
25 26 26 25 26 25 23 24 27 30 30 29 27 27 27 25 22 20 18 17 15 14 14 14 14 13 13 14 14 15 15 16 16 16 17 18 19 20 20 21 22 22 22 23
23 24 24 24 24 24 23 24 27 28 29 27 27 27 27 25 23 21 20 18 17 16 16 17 16 16 16 16 16 16 16 17 18 18 19 20 21 21 22 23 24 25 25 25
20 21 22 23 23 23 22 23 26 29 28 27 27 27 26 25 23 23 22 20 19 18 17 18 19 17 17 18 18 18 18 19 20 20 21 22 23 23 24 24 26 26 27 27
17 18 19 20 20 21 22 22 25 25 25 25 27 27 26 25 25 24 23 22 20 19 18 19 20 20 19 20 19 19 20 21 22 22 23 23 24 25 26 25 26 28 28 28
15 16 17 19 19 19 19 20 22 23 23 24 25 27 28 27 26 23 20 21 21 21 21 21 21 21 21 21 20 20 21 22 23 24 24 25 26 27 27 27 28 29 29 30
14 14 15 17 18 18 19 20 21 22 22 23 23 23 25 26 25 25 25 24 23 22 23 23 22 21 21 23 22 22 22 24 25 25 25 26 28 29 29 29 30 31 32 33
14 14 13 14 15 17 18 19 20 21 21 21 21 22 22 22 21 22 23 23 22 23 23 24 23 22 22 24 24 24 25 25 25 26 27 28 29 30 31 31 32 33 34 35
14 13 13 13 13 15 16 17 18 19 21 22 21 20 19 20 20 20 21 22 22 22 22 23 23 23 23 24 25 25 26 27 27 28 28 29 30 30 32 32 34 35 37 37

GEFSCGP_500_meanwind_138.txt.gz
Wind_Speed
21 20 19 20 20 19 18 17 15 16 17 17 17 15 14 15 15 15 14 14 13 12 12 10 10 10 11 12 13 14 17 18 18 18 17 17 18 18 16 15 14 13 12 11
20 19 20 21 20 19 19 18 16 16 18 18 17 15 14 15 15 14 13 13 13 13 11 10 10 9 8 9 11 13 15 18 19 18 17 17 17 17 16 16 15 13 12 12
19 19 21 21 20 20 19 18 18 18 18 19 18 15 15 15 15 14 14 14 13 12 10 10 9 8 9 9 10 12 15 17 19 19 18 17 17 17 17 16 15 14 13 12
20 21 21 20 20 20 20 19 19 19 18 18 18 15 14 15 15 15 15 14 13 12 10 9 8 7 9 10 10 12 14 16 18 18 17 17 17 17 17 16 15 15 14 12
20 21 21 20 20 20 19 20 20 20 19 19 18 16 13 14 15 14 14 13 12 11 10 8 7 6 7 8 10 12 13 15 17 18 18 18 18 18 17 16 16 16 15 13
21 22 21 19 20 20 20 21 21 21 20 19 17 17 13 15 15 14 13 12 12 11 9 8 7 7 7 8 10 12 13 15 16 18 18 18 19 18 17 17 17 16 15 14
20 20 20 19 20 20 20 21 21 20 20 17 16 16 13 14 14 13 12 11 11 10 9 8 7 7 7 8 9 10 13 15 16 18 18 18 18 18 18 18 18 17 16 15
19 19 19 19 19 20 21 21 22 21 19 16 16 15 13 13 13 12 11 10 9 9 9 8 8 7 7 8 9 10 12 14 16 17 18 18 18 18 18 19 18 17 17 16
16 17 18 18 20 21 22 22 22 22 20 19 17 15 13 14 13 12 11 10 9 8 8 7 7 8 8 8 9 11 13 14 16 17 17 18 18 18 18 18 18 17 17 17
16 16 16 18 20 21 22 22 23 23 22 21 18 15 14 13 11 11 11 10 10 8 8 7 7 8 9 9 10 11 14 14 15 16 16 17 18 18 17 17 17 18 18 17
18 17 17 19 20 21 22 23 24 24 24 23 19 14 13 13 12 11 11 11 10 9 8 8 8 9 9 10 10 11 14 15 16 16 16 17 17 17 17 17 17 18 17 17
21 20 19 20 21 23 24 25 25 26 26 24 21 15 14 13 12 12 11 11 10 9 9 10 10 10 10 11 11 12 14 15 16 16 16 17 17 17 17 17 17 17 17 16
24 23 22 21 22 23 25 26 27 27 27 26 24 17 16 16 14 13 12 11 10 11 10 10 11 11 11 12 12 12 14 15 16 16 17 17 17 17 18 17 17 17 17 16
27 26 25 23 23 24 25 26 28 28 28 27 24 20 18 18 16 14 13 12 12 11 11 11 11 11 12 12 12 12 14 15 16 16 16 17 17 18 18 18 18 18 17 16
29 27 26 25 25 25 25 26 27 29 29 28 25 22 19 18 17 16 15 14 13 12 12 12 12 13 13 13 13 12 13 14 15 16 16 17 17 18 18 18 19 18 18 17
30 30 28 28 27 27 26 27 28 29 29 28 25 22 20 19 18 17 17 15 15 14 14 13 13 14 14 14 14 14 14 15 16 17 17 18 18 18 19 19 19 20 20 20
30 30 30 29 28 28 27 25 27 27 27 26 25 24 22 21 21 19 18 18 17 16 16 15 16 16 17 16 16 16 16 17 17 17 18 18 19 20 20 21 21 22 22 22
29 29 29 29 28 29 26 24 25 26 27 26 25 24 24 22 22 21 20 19 19 19 18 18 18 19 19 19 18 18 18 18 18 19 19 20 20 21 21 22 23 24 24 24
28 27 27 28 28 27 24 23 23 24 24 24 25 25 24 23 23 23 22 22 21 21 20 21 22 21 21 21 20 20 19 19 20 20 20 21 22 22 23 24 24 25 25 26
25 25 25 26 26 25 23 23 23 23 23 23 24 24 24 23 24 23 24 24 24 23 23 23 24 24 23 23 22 22 21 21 21 22 22 23 23 24 24 25 25 26 27 27
24 23 23 23 23 23 23 22 23 23 23 23 24 25 25 24 23 24 24 24 24 25 25 25 25 26 26 25 24 24 23 23 23 24 24 24 25 25 26 26 27 27 28 28
21 20 20 21 21 21 21 20 21 21 21 22 23 24 24 24 23 24 24 25 25 25 26 26 26 27 28 28 26 26 25 25 26 25 25 25 25 26 27 28 28 28 28 29
19 19 19 20 19 19 19 20 19 19 20 20 22 23 23 23 23 24 25 26 27 26 25 27 28 27 28 28 28 27 27 28 27 27 27 27 27 27 28 29 28 28 29 29
18 18 18 17 17 17 17 18 18 18 19 19 20 21 21 22 23 24 25 25 26 27 26 27 28 29 29 29 29 28 29 28 29 29 29 30 30 29 29 30 30 30 31 31
16 15 16 16 16 16 16 17 17 18 19 19 19 20 21 21 22 23 23 25 25 25 27 26 28 29 28 29 29 29 29 29 29 29 28 29 29 29 30 31 32 33 33 33
15 15 14 14 15 15 15 16 17 18 18 19 20 21 22 21 22 22 22 23 24 24 25 25 26 28 28 29 30 30 30 30 30 30 30 30 29 29 30 31 32 33 34 35

GEFSCGP_500_meanwind_144.txt.gz
Wind_Speed
21 20 19 19 19 19 18 17 16 17 17 15 15 15 15 15 15 14 14 13 13 14 15 14 13 12 13 14 15 16 18 19 19 19 21 22 22 21 20 19 17 16 15 13
21 20 20 20 19 18 17 17 17 17 17 16 14 14 14 15 15 14 14 13 13 14 14 14 12 13 13 14 15 16 17 19 19 19 20 22 21 20 19 19 18 17 15 14
21 21 21 20 19 18 17 17 17 17 16 15 14 12 14 15 15 14 13 13 13 14 14 13 11 11 12 12 14 15 16 18 19 20 20 22 21 19 19 18 18 17 16 15
22 21 21 20 19 17 17 17 17 16 15 15 14 12 15 15 15 13 13 13 13 13 12 11 10 11 11 12 12 15 16 17 18 19 19 20 20 20 20 18 18 17 17 16
21 21 20 19 19 18 18 17 16 15 15 14 14 13 13 15 14 13 13 13 12 12 11 10 9 9 10 11 11 12 15 16 18 19 19 19 20 20 21 20 19 18 17 17
21 21 20 19 19 18 18 16 15 15 14 13 14 13 11 13 13 13 13 12 12 11 10 9 9 8 8 9 10 11 13 16 17 18 18 19 19 20 21 20 20 19 18 17
20 20 19 19 18 18 17 15 13 13 13 13 15 13 11 12 12 12 12 11 11 10 9 9 9 8 8 9 10 11 12 15 17 18 18 19 19 20 20 20 20 19 18 18
18 18 19 18 18 17 17 16 14 13 12 13 15 12 11 12 12 11 11 10 10 9 8 8 8 8 8 9 9 10 12 15 15 17 18 19 19 20 20 20 20 20 19 18
17 17 18 18 18 19 18 17 16 16 14 13 13 13 12 12 12 11 11 11 10 9 8 8 8 9 8 8 8 9 11 14 15 16 18 19 19 20 20 20 21 20 20 19
18 17 18 18 18 19 19 18 18 17 15 13 13 13 12 13 12 11 11 11 11 10 9 9 9 9 8 8 8 8 9 11 14 15 17 19 19 19 20 19 19 19 20 19
18 17 17 18 19 18 19 19 19 18 17 15 13 13 15 13 12 12 12 12 11 10 9 9 10 10 9 8 8 8 8 11 13 15 16 18 18 19 19 19 19 19 19 19
19 17 17 18 19 19 19 19 19 19 18 18 16 15 17 14 14 14 13 13 12 11 10 10 10 10 10 9 9 9 9 11 12 14 16 17 18 18 19 19 19 19 18 19
20 19 18 18 19 20 21 20 20 20 19 19 17 17 18 16 16 15 15 14 13 13 11 10 10 10 10 11 10 10 9 11 13 13 15 16 16 17 18 19 18 18 19 19
22 21 19 18 19 20 20 20 21 21 20 19 19 19 20 19 17 17 17 16 14 13 12 11 11 10 10 11 11 11 10 11 12 13 14 16 16 17 18 18 19 19 19 19
23 23 22 22 22 21 21 21 22 22 21 21 20 21 21 20 19 19 18 18 16 15 14 12 12 11 11 11 11 12 11 11 12 13 14 16 16 17 18 18 18 18 18 19
25 24 23 23 23 23 23 23 23 22 22 22 22 22 22 22 20 19 19 19 18 17 16 14 14 13 12 12 13 13 12 12 13 13 14 15 16 17 17 18 18 19 19 19
26 25 24 24 24 23 24 23 23 23 23 23 23 23 22 22 21 21 20 21 20 19 18 17 15 15 14 14 14 14 14 13 14 14 15 16 17 18 18 19 19 20 20 20
25 24 24 24 24 25 25 24 24 24 24 24 24 24 23 23 22 22 22 22 21 21 20 20 18 16 16 16 15 15 16 16 15 15 16 17 18 19 20 20 21 21 22 22
25 25 24 24 24 25 25 24 23 24 24 24 25 24 24 24 23 24 24 23 23 23 23 22 21 20 19 18 18 18 18 18 18 18 18 18 19 20 21 22 23 23 24 24
24 24 24 25 24 24 25 23 23 23 24 23 24 24 23 24 25 25 24 25 25 25 25 24 23 22 22 21 20 20 19 20 20 20 20 21 22 22 23 23 24 25 25 25
23 24 24 24 24 25 25 23 22 23 24 22 22 23 23 23 24 25 25 25 26 27 26 25 25 25 24 24 23 22 21 21 22 23 23 23 23 23 24 25 26 27 27 27
23 23 24 24 24 25 23 22 22 22 23 22 22 23 23 23 23 24 25 25 26 27 27 26 26 26 26 25 25 25 25 25 25 24 24 25 25 26 26 27 27 28 28 28
23 23 23 24 25 24 23 22 22 22 22 21 22 22 23 23 23 24 25 25 25 26 26 27 26 26 26 26 26 26 27 27 27 27 26 26 27 27 28 28 28 29 29 30
22 22 21 22 22 22 22 22 22 21 21 20 21 22 22 22 23 24 25 25 25 25 26 27 26 26 27 27 26 27 27 28 28 28 28 29 28 28 28 28 29 30 31 31
20 20 20 21 21 21 21 22 21 21 21 21 21 20 21 22 22 23 24 25 26 26 27 27 27 28 28 28 28 28 28 29 30 30 31 31 31 32 31 31 31 32 32 33
20 20 20 21 20 20 20 20 19 19 19 20 20 20 21 22 22 22 23 25 25 25 26 27 27 28 28 29 30 31 31 31 32 32 32 33 33 33 32 32 33 34 34 34